Theta_e
313 311 312 313 313 312 310 309 307 306 305 305 305 305 305 305 305 305 305 306 305 306 307 307 307 307 307 307 308 308 308 309 311 316 319 317 316 314 312 313 314 314 314 314 314 314 314 315 314 312 315 317 315 315 315 317 331 344 341 335 323 317 319 319 321 319 322 324 319 317 317 319 317 315 312 312 316 317 315 315 314 313 311 311 312 313 315 318
312 312 312 312 313 312 310 308 307 306 305 305 305 305 305 305 305 305 305 306 306 306 306 307 307 307 307 307 308 308 308 311 314 316 317 318 314 311 313 313 313 314 314 315 314 314 316 317 313 313 319 318 313 316 317 313 324 340 340 332 324 324 320 317 322 319 317 320 319 318 316 317 317 316 313 313 317 314 316 317 314 317 315 313 313 314 317 322
312 311 311 312 312 311 311 308 306 306 306 305 305 305 305 305 305 305 305 306 306 306 306 306 307 307 307 307 308 308 311 313 315 316 315 317 314 311 313 313 313 314 314 315 315 314 315 316 311 314 321 317 314 318 322 316 316 328 335 330 324 327 321 315 319 319 318 318 318 317 314 316 316 314 313 315 318 314 319 322 317 320 319 316 314 312 317 322
311 311 311 312 311 310 310 307 305 305 305 305 306 305 305 306 306 305 306 305 306 306 306 306 306 307 307 308 308 308 313 313 312 315 315 315 314 312 313 313 313 314 314 315 315 315 314 313 311 316 320 317 321 321 319 317 314 319 327 327 320 321 319 316 317 318 317 316 319 319 315 316 314 313 315 316 318 316 321 323 321 325 322 319 315 311 314 317
311 310 310 311 311 310 309 306 305 305 305 305 305 306 305 305 306 306 306 305 306 306 306 307 306 307 307 308 309 309 314 314 312 315 314 313 313 312 313 312 313 313 314 315 315 315 313 312 313 321 321 316 324 323 315 314 315 316 317 319 319 317 316 316 317 316 315 316 319 318 315 316 313 314 318 317 319 320 320 318 320 324 319 317 316 311 312 313
310 309 309 309 310 311 310 310 309 307 307 307 306 306 306 305 306 306 307 307 306 306 307 307 307 308 308 309 311 311 314 315 313 314 312 312 313 313 313 312 313 313 314 315 314 314 315 315 317 323 322 317 318 318 316 313 315 319 315 315 318 317 316 317 318 317 317 318 319 318 315 316 315 315 316 316 319 319 315 312 314 316 313 312 312 311 313 312
310 310 310 309 309 310 311 312 311 309 310 310 309 308 306 306 305 306 307 307 307 307 307 308 308 308 309 311 313 315 316 316 314 313 312 312 313 313 313 312 312 314 315 315 314 316 320 321 319 320 322 318 315 315 317 316 319 323 318 316 317 316 317 319 319 319 320 320 319 317 314 315 318 316 313 315 319 317 310 307 306 308 309 310 312 311 312 311
311 311 311 309 309 310 310 311 310 311 312 311 310 308 307 306 305 306 306 307 308 308 308 308 308 308 310 312 315 318 318 318 316 313 313 312 313 313 312 312 313 314 315 314 314 316 319 320 317 316 320 317 315 316 316 316 323 324 318 317 318 316 318 318 318 320 320 318 316 316 315 317 318 314 313 318 320 314 309 307 306 308 309 312 316 314 308 308
312 311 311 309 309 310 310 310 311 312 313 312 311 309 308 306 305 306 306 307 308 308 309 309 310 310 312 312 314 317 316 317 316 314 313 312 313 313 312 313 314 316 315 315 313 314 316 317 316 315 317 316 314 317 316 316 320 319 318 320 319 317 318 317 317 319 318 316 315 315 317 318 316 312 315 321 319 311 310 312 311 312 315 316 318 313 307 307
312 312 311 310 309 309 310 311 311 312 312 313 312 309 308 307 306 306 305 306 306 308 309 310 312 312 313 312 311 313 314 316 316 313 312 313 312 312 312 313 315 316 315 315 313 314 315 316 314 312 315 317 315 316 316 316 317 318 319 319 319 320 319 317 317 319 316 315 316 315 317 317 313 313 316 320 314 310 313 315 313 315 317 316 315 311 308 308
311 312 312 311 310 309 310 311 311 312 313 313 312 309 308 307 306 306 305 306 306 307 309 311 312 312 313 313 314 313 315 318 316 313 313 312 312 312 313 313 315 316 316 315 313 313 314 313 311 311 315 315 315 316 315 314 315 316 318 318 320 323 320 316 317 317 315 314 316 315 316 316 312 314 319 318 311 310 316 316 313 315 317 314 314 311 308 307
312 311 311 311 311 310 310 311 310 311 313 313 313 309 308 308 307 306 306 306 307 307 309 312 313 314 313 312 316 316 317 318 315 313 313 312 312 312 313 314 315 316 316 315 314 313 313 312 312 314 316 314 316 317 314 314 314 316 318 318 324 328 322 316 316 316 314 315 317 315 316 318 315 315 318 314 310 311 314 316 314 315 315 314 313 311 308 306
311 311 311 311 311 311 311 311 312 312 313 314 313 309 308 308 307 307 306 307 308 309 311 312 313 315 312 312 315 314 316 317 314 313 313 312 312 312 313 315 316 316 317 316 314 312 312 313 314 315 315 317 319 314 315 317 315 317 317 318 324 327 324 317 314 315 313 315 317 315 318 327 326 319 316 311 309 312 314 315 314 314 314 313 313 313 311 306
311 311 311 311 311 311 310 311 313 314 314 314 313 310 310 309 308 307 307 308 309 311 313 313 314 314 311 313 315 313 315 316 315 313 312 312 312 313 314 316 316 316 316 315 314 313 313 313 313 314 313 316 316 311 322 327 322 320 315 322 327 320 327 325 315 315 314 314 315 315 318 326 329 322 316 310 309 313 315 314 312 313 313 313 312 313 313 307
312 312 311 311 310 310 310 310 312 313 314 314 312 311 311 310 310 308 308 310 311 313 314 313 315 314 314 314 313 314 316 316 317 314 312 313 313 315 315 316 316 315 315 314 314 313 313 313 314 317 313 313 316 318 330 331 329 329 315 325 331 317 331 335 316 315 317 314 312 315 320 321 321 320 314 309 309 312 314 314 311 312 312 312 312 311 312 308
313 313 313 312 311 310 310 310 311 313 313 312 311 312 312 311 312 311 310 312 313 314 314 314 315 314 315 315 313 316 316 317 318 315 313 314 314 316 315 315 314 314 314 312 313 313 313 316 314 315 315 315 323 332 337 329 331 336 320 323 332 321 327 329 317 315 316 315 312 313 321 323 321 317 310 308 309 311 313 313 311 311 311 310 310 309 310 309
314 314 314 313 313 312 311 310 310 311 312 311 311 312 312 313 314 312 312 314 316 316 314 315 314 311 312 313 315 318 316 316 318 316 315 315 315 316 314 314 313 312 314 312 313 314 312 317 315 314 318 318 324 333 333 325 327 334 322 321 330 325 322 325 324 318 312 315 315 313 316 320 320 316 312 310 309 311 312 312 311 309 309 309 309 309 309 309
314 314 314 314 313 312 311 311 310 310 312 312 312 313 313 314 314 313 315 316 316 313 312 313 311 310 311 311 315 318 315 315 317 316 316 316 316 315 314 313 311 311 315 314 313 314 314 319 321 322 322 318 321 327 325 323 329 333 326 324 327 324 320 324 326 319 312 314 316 315 315 317 317 315 315 313 309 311 312 310 310 309 309 309 308 309 308 308
314 314 314 314 313 312 311 311 310 310 313 313 313 314 314 314 314 314 315 315 315 310 310 314 311 311 313 313 315 316 315 315 316 316 315 317 314 313 314 312 314 316 317 318 315 316 320 322 323 323 322 320 319 322 322 323 330 335 332 331 330 325 323 325 325 321 315 314 316 316 315 316 315 315 316 314 309 309 310 310 310 310 310 309 308 308 308 308
313 313 314 313 313 312 311 311 310 310 313 313 314 314 313 317 316 314 317 318 318 314 315 318 313 314 316 316 317 315 315 315 315 316 315 316 314 313 314 312 317 320 318 324 319 315 321 323 324 324 323 322 320 319 320 322 325 327 328 330 328 326 326 325 325 322 315 314 320 318 314 316 315 315 315 313 311 310 309 310 310 310 309 309 308 308 308 308
314 313 313 312 312 312 311 311 310 311 313 314 315 314 314 318 314 312 319 320 316 312 316 320 313 314 315 315 316 315 317 317 314 315 315 314 313 314 316 315 319 320 320 326 320 315 320 323 324 325 321 319 319 318 318 321 322 321 323 324 325 326 325 322 321 319 314 314 321 320 315 315 314 313 313 312 314 313 311 310 310 310 309 308 308 308 308 307
314 314 313 312 313 312 311 311 310 312 313 314 315 314 314 315 312 312 317 318 316 312 314 316 313 315 315 313 315 314 318 321 317 317 315 313 313 315 317 318 320 322 319 320 320 318 320 323 322 320 319 318 318 317 316 318 319 318 320 320 323 325 322 322 322 317 313 315 322 323 318 316 315 313 312 312 313 312 311 311 311 311 310 309 308 308 308 308
315 314 313 313 313 312 311 311 311 312 314 315 314 313 314 315 314 314 313 316 321 317 314 314 315 318 317 314 315 315 318 322 321 319 316 312 315 317 317 318 320 321 319 318 322 323 323 326 322 316 318 319 318 318 316 316 317 319 321 319 323 324 321 324 325 317 314 315 319 321 317 315 314 314 315 313 311 311 311 311 310 310 310 310 309 308 308 308
315 314 313 313 313 313 312 311 312 312 314 315 314 314 315 316 315 315 316 317 320 320 317 313 313 316 318 315 314 317 318 319 320 319 315 313 315 316 316 318 319 320 318 319 322 322 323 324 318 316 319 319 319 320 319 319 321 322 321 320 322 323 321 323 324 320 321 321 318 318 319 321 321 318 316 317 315 313 312 312 312 310 310 310 310 309 308 308
315 314 314 314 314 314 312 311 312 313 314 315 314 314 315 316 315 315 318 317 317 321 317 312 314 316 315 313 314 318 317 318 320 318 314 313 315 315 316 318 319 320 318 317 319 319 320 318 317 320 319 317 320 321 322 323 323 324 324 321 319 321 322 321 322 320 325 330 321 317 324 333 334 326 319 319 320 318 315 313 314 312 310 310 310 310 309 308
314 314 314 314 314 313 311 312 313 313 315 314 313 313 315 317 315 314 318 320 317 318 316 313 316 316 313 314 316 316 317 318 318 315 313 313 313 315 316 316 317 319 318 317 318 318 319 317 320 326 321 319 321 320 323 322 320 324 326 323 319 319 320 321 322 321 327 331 319 317 327 331 329 326 324 324 326 326 321 318 316 313 312 311 309 309 309 307
315 314 314 315 315 313 312 312 313 313 315 314 312 313 315 316 316 313 315 320 317 316 318 315 313 313 315 315 314 313 314 317 315 313 314 313 313 314 316 317 316 316 317 317 318 318 318 317 319 324 324 323 321 321 323 319 321 327 325 322 320 318 319 321 321 322 327 327 320 323 328 325 323 323 324 325 326 327 326 323 319 314 313 312 309 309 308 307
316 315 315 316 315 313 312 313 314 314 315 314 311 314 316 316 316 314 313 316 315 315 319 316 312 312 315 313 312 313 315 316 316 316 312 312 314 314 316 318 317 317 317 318 318 316 319 322 320 321 323 323 322 326 324 318 322 327 320 319 321 320 322 323 322 324 324 323 324 325 322 323 327 324 322 322 322 325 326 324 321 318 318 314 310 309 308 306
316 316 316 316 315 313 313 314 315 314 314 314 313 315 317 315 315 317 318 316 315 317 317 316 314 313 315 313 312 315 316 317 318 315 312 312 313 314 316 317 317 318 316 316 317 318 318 320 319 319 321 322 325 328 323 319 321 319 316 320 322 323 327 328 328 327 327 325 326 327 323 324 328 327 325 321 322 328 327 322 320 321 323 317 311 309 307 306
317 316 316 316 315 313 312 314 315 314 314 314 315 315 316 317 315 317 319 318 318 320 316 314 316 316 316 315 314 316 317 318 316 314 314 314 314 314 315 315 318 321 318 316 319 320 317 314 314 318 320 321 324 321 316 318 319 316 321 327 328 329 330 331 330 327 328 327 326 328 326 324 326 330 329 324 325 330 327 325 326 326 326 320 311 308 307 305
318 317 317 317 316 313 312 313 314 315 315 315 316 315 317 320 320 318 319 318 319 321 316 316 317 316 316 316 317 317 317 318 315 314 316 316 315 317 316 315 319 323 321 320 321 319 316 315 316 318 319 320 324 320 316 316 315 320 332 332 328 332 330 330 330 327 329 329 325 326 323 321 325 328 328 325 324 326 325 327 331 331 331 327 314 306 306 304
319 318 317 317 316 314 312 313 313 315 316 316 316 316 318 321 321 321 321 318 321 322 320 320 318 316 316 317 318 317 317 319 316 315 318 317 316 316 316 318 319 321 321 321 322 319 318 321 321 317 315 319 325 324 319 316 315 322 331 329 326 330 329 329 330 328 329 325 320 319 320 321 324 323 325 325 323 324 322 320 324 325 327 328 316 306 305 304
319 318 317 317 317 314 313 313 313 315 316 316 316 318 319 321 321 322 322 322 323 322 321 322 319 317 317 318 319 316 317 319 317 316 317 317 318 316 316 319 318 320 324 320 319 321 323 323 320 317 317 319 322 323 322 320 319 321 324 326 327 329 330 335 333 327 326 325 317 316 319 323 325 325 325 321 320 325 324 319 319 319 320 322 315 306 304 303
319 318 317 317 317 315 313 313 314 315 316 316 318 320 320 321 322 322 322 322 323 322 321 321 318 316 317 320 321 317 317 320 317 317 318 317 319 318 318 319 316 321 328 322 319 323 324 323 321 318 320 321 318 319 324 324 319 319 321 324 325 329 333 338 336 330 330 328 320 315 321 328 330 329 326 322 322 326 327 322 317 315 314 312 310 306 304 303
319 318 317 317 317 316 314 313 314 316 316 316 319 320 320 321 323 324 324 321 324 325 321 318 318 318 319 322 323 317 318 321 317 317 320 318 319 319 318 318 315 320 325 321 321 322 320 325 326 319 318 319 317 320 325 324 320 319 321 323 324 327 328 328 326 325 326 327 324 319 323 327 327 325 322 321 324 324 324 320 316 316 312 309 309 306 303 302
317 318 317 317 316 316 315 313 315 316 316 317 319 320 320 322 323 325 324 322 324 324 319 319 321 322 320 321 321 318 318 322 319 318 320 318 319 319 318 319 316 316 318 317 323 324 322 326 322 315 316 317 317 320 321 321 322 320 319 322 321 319 321 324 322 318 319 324 326 323 325 326 324 323 319 319 323 323 322 322 319 316 312 310 310 306 303 302
316 317 316 316 316 316 315 313 315 316 316 318 320 320 320 322 323 324 325 323 322 320 320 322 322 322 322 321 321 320 319 321 319 319 321 319 320 320 318 319 318 315 316 317 323 324 323 327 320 315 318 315 313 319 320 317 319 322 323 322 318 317 322 327 326 324 325 328 327 324 324 325 324 324 322 319 320 321 322 322 319 315 313 311 309 305 303 302
316 317 317 316 316 316 315 314 315 315 316 319 320 319 320 322 323 324 325 322 320 320 321 324 322 321 322 321 322 320 319 321 319 319 321 319 320 321 318 319 319 315 315 316 321 323 321 323 322 316 318 315 312 318 321 315 314 320 325 322 320 326 327 325 326 329 330 330 329 326 323 321 321 323 324 322 324 326 324 321 319 318 316 310 306 304 303 302
316 317 318 317 316 316 315 314 315 316 318 319 319 318 320 321 322 325 325 321 319 321 322 323 322 321 322 321 322 320 318 321 319 318 321 319 320 321 317 318 320 316 315 315 319 324 321 321 324 315 313 315 315 317 322 319 314 315 318 317 320 327 326 324 325 327 329 330 330 329 325 322 323 324 324 324 327 331 328 326 326 323 316 309 305 304 303 302
316 316 318 318 317 316 315 314 315 317 318 318 317 317 318 319 319 323 326 321 320 322 322 322 324 323 322 321 321 320 319 320 318 318 321 320 320 321 317 317 320 317 315 314 317 322 321 320 324 318 312 316 320 320 320 320 317 317 319 319 320 321 321 324 324 323 327 330 331 330 326 324 326 325 325 324 324 327 328 329 331 324 314 309 306 303 302 301
316 316 317 317 317 316 315 315 317 318 318 317 316 316 317 318 318 320 322 320 321 324 322 322 324 323 322 321 320 321 319 319 319 318 320 319 319 322 319 317 320 318 315 316 317 320 321 322 326 324 318 319 322 319 316 317 318 318 319 320 319 319 321 324 323 322 323 325 328 329 326 325 328 323 322 323 323 323 322 321 324 320 313 312 307 302 302 301
316 316 316 317 316 316 315 317 318 318 318 315 315 316 316 317 318 318 319 319 320 322 322 322 323 323 322 321 320 322 321 320 319 318 319 319 318 321 321 318 318 317 315 317 317 317 323 326 327 326 321 320 320 315 312 316 318 316 319 322 320 318 321 324 325 324 322 322 322 324 325 324 322 318 320 324 322 320 318 316 319 317 313 312 308 303 302 302
317 317 317 316 316 315 316 318 318 318 317 315 315 316 316 317 318 317 318 319 318 320 322 323 324 323 322 322 321 321 321 321 320 318 319 319 318 321 323 319 317 316 316 318 318 318 322 324 324 324 321 320 320 315 312 314 316 316 320 323 321 318 319 323 325 324 324 325 322 322 326 322 317 318 319 321 319 318 316 316 319 320 314 311 308 305 303 302
317 317 316 316 316 316 318 319 318 317 315 314 315 316 315 316 317 317 318 318 318 320 321 322 324 323 322 324 323 321 321 322 322 319 319 321 320 321 323 321 318 317 317 319 319 317 320 323 324 325 325 324 324 321 317 315 315 319 322 320 318 319 319 321 321 320 323 325 323 324 326 320 320 322 319 318 321 322 321 318 317 320 317 313 309 305 302 302
314 316 315 315 315 316 318 319 318 316 314 314 315 315 315 315 316 317 318 317 318 320 320 321 323 323 323 324 323 321 321 322 323 322 321 321 320 318 319 320 318 316 318 321 320 317 320 324 322 323 326 327 326 325 323 318 316 319 323 319 316 319 320 320 320 320 322 323 322 324 324 320 322 323 318 319 323 325 326 325 320 318 316 311 308 305 302 301
313 315 316 316 315 316 318 318 317 316 314 313 313 314 315 316 316 316 317 318 318 319 321 323 324 323 323 324 323 323 323 321 324 326 323 322 323 319 316 317 318 317 319 322 321 321 326 326 320 321 325 324 326 328 324 320 318 319 320 319 317 318 318 319 320 321 323 323 321 322 322 322 323 322 320 324 328 328 329 331 330 330 322 312 307 305 302 301
311 314 316 317 317 317 318 317 318 317 314 312 312 312 313 314 315 315 316 317 318 318 319 322 323 323 323 323 323 323 323 322 324 325 323 323 323 317 313 313 316 316 317 320 320 321 326 324 321 322 323 321 327 329 322 319 320 320 320 319 318 317 317 319 320 321 323 324 323 322 322 322 321 320 321 325 327 326 326 326 329 331 325 313 307 305 303 302
309 312 314 314 315 318 317 316 317 317 315 312 311 311 312 312 313 315 315 316 317 318 318 319 321 322 323 323 323 323 323 323 323 323 322 322 321 317 313 313 314 313 315 317 317 318 322 323 322 323 322 321 326 325 320 320 320 319 319 319 317 317 317 318 319 320 321 323 323 322 324 324 320 319 321 322 322 321 321 321 321 319 318 313 309 307 305 302
307 309 310 310 313 316 316 315 315 316 316 314 312 311 312 312 313 313 314 315 316 317 318 318 319 320 322 322 323 323 323 324 323 323 322 322 322 320 318 318 316 313 315 316 314 315 321 323 323 323 322 322 324 323 320 319 320 319 319 319 318 317 317 317 318 318 319 321 321 322 324 323 319 320 322 323 322 319 318 321 320 318 317 315 311 309 306 303
307 308 309 309 311 313 314 314 315 316 315 314 313 311 311 312 313 313 314 315 316 316 317 318 317 318 320 321 322 323 322 322 323 323 321 321 321 320 320 321 319 315 314 314 313 314 319 323 323 322 322 322 323 322 319 319 320 320 320 319 317 317 317 317 317 317 318 320 319 320 322 320 319 320 321 321 320 318 317 319 318 317 316 314 313 311 306 303
305 305 306 308 309 311 312 313 314 315 315 314 314 312 311 311 313 313 314 314 315 316 316 317 318 317 318 319 321 321 321 321 322 322 321 321 320 321 320 320 319 317 315 314 314 316 318 320 321 321 323 323 322 321 319 318 320 320 321 319 317 316 317 316 317 317 318 319 319 319 320 319 319 321 320 319 321 319 318 317 316 315 315 313 314 313 307 304
304 303 304 306 308 310 312 312 312 314 315 315 313 312 311 311 312 313 314 314 315 315 315 316 317 317 318 319 319 319 319 320 321 321 321 320 321 322 321 317 316 317 315 315 316 318 318 319 320 322 323 323 322 321 318 318 321 322 322 320 317 316 316 316 316 317 316 318 319 320 319 318 319 320 320 320 321 319 317 316 315 315 314 311 311 311 307 303
Wind_Speed
5 5 4 3 2 3 3 3 4 4 4 5 5 5 5 5 5 5 5 5 5 5 5 5 5 5 5 6 7 8 8 8 6 3 3 3 3 3 3 3 2 2 3 4 5 2 3 6 9 12 6 3 4 2 3 3 3 5 4 4 3 4 4 5 7 7 4 4 5 4 3 7 3 1 2 2 7 4 3 5 3 5 5 2 2 4 8 15
6 5 4 3 3 3 4 4 4 4 5 5 4 5 5 4 5 5 5 5 5 5 5 5 5 5 5 6 7 8 8 7 4 4 6 5 4 5 5 3 2 3 4 6 8 7 5 5 8 9 6 3 3 3 2 2 3 4 3 4 3 5 4 5 7 7 3 3 5 3 2 5 5 4 3 1 1 2 3 3 4 4 2 1 3 6 11 17
5 5 4 3 3 4 4 5 5 5 5 5 4 4 4 4 4 5 5 5 5 5 5 5 5 5 5 6 7 7 8 5 3 4 5 7 7 6 5 3 3 4 5 6 7 7 4 3 4 5 5 3 2 3 4 4 2 2 4 4 4 6 3 3 6 7 5 4 6 3 2 3 3 3 1 3 3 1 3 4 1 2 5 4 2 6 13 16
5 5 4 3 3 3 4 4 5 5 6 5 5 4 4 4 4 4 4 4 5 4 5 4 4 5 5 6 6 6 6 3 1 2 5 8 8 8 5 4 4 4 5 6 6 6 5 2 3 4 4 2 4 4 3 3 1 2 4 3 5 4 2 3 5 6 4 5 7 3 3 3 3 2 2 6 5 3 6 7 8 8 9 8 5 6 12 14
5 5 5 4 3 3 3 4 4 5 5 4 3 3 4 4 4 3 3 4 4 4 4 4 4 4 5 5 5 6 5 3 1 2 7 9 9 8 5 4 4 4 4 6 5 4 4 4 6 6 4 2 5 5 2 3 2 3 1 3 5 5 2 4 4 4 4 4 5 5 4 3 2 1 3 8 6 6 6 7 9 9 11 11 9 9 11 12
5 6 5 4 3 2 2 2 2 3 3 2 1 2 3 4 4 3 3 3 3 4 3 3 3 4 4 5 4 4 3 1 3 3 9 10 9 7 4 3 4 4 4 4 4 4 4 5 7 4 3 3 3 2 1 5 3 3 1 2 3 4 2 3 3 4 5 6 5 5 3 2 3 1 3 7 8 7 4 5 6 7 12 14 11 10 9 9
5 5 5 4 3 2 1 2 3 2 2 1 0 1 2 2 3 3 3 3 3 3 3 3 3 3 4 4 3 3 3 2 4 6 10 10 9 6 3 2 3 4 4 3 4 3 4 7 6 3 4 3 0 1 2 5 4 6 1 2 1 4 4 3 2 3 5 6 6 4 3 3 5 3 1 4 8 4 3 1 6 9 14 15 10 9 8 9
5 5 5 5 4 3 2 2 2 2 1 0 0 1 1 1 2 2 3 3 3 3 2 3 3 2 3 2 1 4 2 3 3 9 11 10 9 5 2 2 3 3 3 5 4 3 3 6 3 3 4 2 3 2 3 4 5 5 2 2 1 2 3 1 2 1 3 3 3 5 4 5 6 4 1 6 7 1 2 5 9 11 11 10 8 7 8 9
7 6 5 5 5 3 3 2 1 1 1 1 2 2 1 1 2 2 3 4 3 2 2 2 2 2 2 1 4 2 3 3 4 11 12 10 9 6 2 2 3 2 4 5 4 4 3 2 2 3 3 2 2 2 2 2 1 1 4 2 1 2 4 1 1 3 3 1 3 5 3 5 2 1 3 6 6 3 4 6 7 8 8 6 6 7 8 9
8 7 7 6 6 5 3 2 2 2 1 1 3 3 1 1 1 2 3 3 3 3 1 1 2 1 1 2 5 1 4 2 5 12 12 10 9 6 3 1 2 2 3 4 5 5 4 4 4 4 5 2 2 2 2 2 1 2 4 3 1 2 5 1 3 4 1 2 4 6 5 4 3 1 4 5 5 5 6 6 4 7 7 6 5 6 9 10
9 8 7 7 8 6 4 3 3 3 3 3 4 3 2 2 1 2 3 4 4 3 2 1 1 1 1 3 5 3 3 1 7 11 11 10 8 6 4 1 1 2 2 4 5 5 4 5 5 4 2 1 1 2 2 1 1 1 2 2 3 5 4 2 3 5 1 2 5 7 4 3 3 1 6 5 5 6 7 7 5 6 6 5 5 5 7 9
10 9 8 8 8 6 4 4 4 4 4 4 4 3 2 2 2 2 3 4 4 3 3 2 1 1 1 3 3 6 3 1 6 10 10 10 8 6 3 1 1 1 1 3 4 5 5 2 5 5 0 2 2 2 1 1 2 1 3 1 6 8 5 3 3 4 3 2 5 6 2 4 3 7 7 3 5 5 6 7 5 6 5 5 5 4 5 8
11 9 9 9 8 7 6 5 4 4 4 5 4 2 3 3 2 3 4 4 4 3 3 3 2 2 2 0 4 6 5 2 5 10 10 9 7 5 2 1 1 2 2 3 4 5 5 1 5 6 2 4 2 1 2 3 3 0 3 2 4 7 5 4 1 2 5 3 4 4 3 6 8 10 6 2 7 7 6 7 6 6 5 5 5 4 5 7
12 11 10 10 9 8 7 6 5 5 5 6 5 3 3 3 2 3 4 4 3 3 3 3 3 3 3 3 4 4 7 5 6 10 10 9 8 5 3 1 2 2 3 4 4 5 5 3 6 6 2 3 1 1 4 5 3 1 1 2 2 2 4 6 1 4 5 2 2 4 3 7 9 9 5 4 8 9 8 8 7 6 5 5 5 5 5 7
13 12 10 9 9 9 8 8 6 5 5 6 4 3 3 2 2 2 4 4 3 4 4 4 3 4 2 4 4 3 6 6 7 10 10 10 8 5 4 3 3 3 3 3 4 5 4 4 6 5 1 2 3 4 4 4 3 3 1 3 3 1 5 8 3 6 5 1 1 4 3 7 9 8 4 5 6 8 9 8 7 7 7 6 5 6 5 6
14 13 11 9 9 9 9 8 7 5 5 5 4 3 2 1 1 3 4 4 5 5 4 4 3 4 2 2 2 3 5 6 7 11 11 10 8 5 5 6 4 4 4 4 4 4 6 6 4 2 1 2 5 5 4 4 4 4 0 3 2 2 3 6 3 3 3 2 0 2 2 4 5 5 3 4 6 6 7 8 8 8 8 7 6 6 5 5
14 13 11 9 8 9 9 9 7 5 3 3 2 2 0 2 3 3 5 8 8 6 6 4 3 3 0 2 2 4 5 7 8 11 12 10 8 6 7 6 3 5 5 5 4 3 5 6 1 1 2 3 3 5 3 2 4 4 1 2 4 3 2 3 4 4 1 3 3 3 3 6 7 4 1 4 6 6 8 9 9 8 7 7 6 6 6 6
16 14 13 11 10 9 9 10 8 4 1 2 2 1 4 5 5 6 9 11 11 9 6 2 3 2 3 3 3 3 3 7 9 12 13 11 8 8 7 4 4 6 6 4 3 3 3 4 2 1 3 3 2 5 3 5 4 3 3 2 3 3 3 4 5 2 3 1 3 4 4 10 13 9 4 6 7 8 10 10 7 7 8 7 7 7 7 7
17 16 15 13 11 10 9 10 9 4 2 2 1 6 7 6 6 6 8 8 6 4 1 3 4 3 4 5 2 3 6 9 10 11 12 11 9 8 6 5 6 6 4 1 1 1 1 3 4 2 1 3 4 7 8 8 7 7 6 4 4 4 4 5 6 5 4 3 4 7 7 10 13 12 9 7 7 8 9 8 6 7 8 8 8 8 8 9
17 16 16 14 13 11 9 10 9 6 2 2 4 7 5 3 3 1 2 2 4 3 2 5 6 3 0 1 3 8 9 7 5 7 11 11 12 10 5 4 6 5 3 4 2 0 3 3 2 4 7 9 9 10 7 5 6 5 5 4 4 4 5 5 4 6 2 3 6 8 9 10 11 13 11 4 6 8 9 9 10 9 9 9 10 10 10 10
17 16 16 15 13 11 10 10 8 8 3 4 6 4 3 4 3 1 3 4 9 7 3 4 3 1 1 1 7 10 7 3 2 4 11 12 13 10 1 2 5 1 2 4 3 1 4 4 7 10 10 8 8 8 5 5 5 2 3 3 3 4 5 7 4 5 1 3 6 6 7 11 11 13 11 3 6 10 12 12 13 13 12 10 11 12 11 7
19 17 16 15 14 12 10 10 9 9 5 5 6 3 2 3 3 2 3 1 10 12 10 5 3 4 3 2 8 7 4 3 0 4 11 10 9 7 2 3 5 4 2 3 3 1 2 4 12 11 4 5 4 5 6 4 3 1 2 2 4 3 4 7 5 4 0 3 5 5 5 9 10 11 11 8 9 11 12 14 15 14 13 12 12 12 10 8
20 19 17 15 14 12 10 9 11 10 8 8 8 5 2 1 3 3 3 2 5 7 7 7 5 5 3 2 8 8 2 4 5 6 11 10 5 5 5 5 5 4 3 5 5 4 3 6 11 7 7 7 3 4 6 3 1 3 3 2 4 3 2 4 5 3 0 2 3 4 6 7 9 9 10 12 11 9 10 12 13 12 13 14 13 12 11 12
20 19 18 16 15 12 9 9 12 11 12 12 14 12 4 3 4 3 2 1 3 4 4 9 7 5 6 3 9 11 3 3 5 6 14 12 5 3 5 6 5 5 5 9 8 6 6 6 3 6 8 8 5 4 7 5 2 5 6 6 5 5 6 6 4 4 3 3 3 4 7 6 7 10 12 8 4 6 10 10 12 12 12 11 9 10 12 12
20 20 18 16 15 13 9 9 12 14 13 11 18 18 9 6 4 3 2 1 3 4 3 6 4 6 11 7 10 10 2 3 4 8 16 15 9 5 3 3 4 5 7 7 6 6 8 5 4 6 6 7 6 4 6 7 4 5 6 10 10 9 9 7 3 5 4 5 4 3 4 6 5 8 11 5 2 6 8 7 13 14 10 8 9 9 10 10
20 20 19 19 16 15 11 8 13 15 12 12 17 17 12 9 5 3 3 3 4 4 1 4 4 8 13 9 8 6 2 4 5 10 17 16 10 5 3 2 2 4 7 5 3 3 5 4 5 7 6 7 6 5 6 8 6 4 5 9 11 9 7 6 2 1 1 4 3 3 1 7 6 6 8 6 6 9 8 8 14 13 8 9 10 9 8 9
22 20 22 21 19 20 14 6 13 16 8 11 15 18 15 11 6 2 3 3 4 3 5 2 2 8 11 10 12 8 2 5 2 8 13 13 9 3 3 5 2 3 4 4 2 3 4 4 4 6 6 6 6 4 6 8 7 4 5 6 9 8 7 6 5 4 3 3 4 3 2 5 9 6 6 7 7 9 10 13 15 11 9 9 9 8 9 10
25 23 23 23 23 26 17 6 13 20 10 4 14 21 17 13 7 2 4 0 4 3 4 1 1 5 4 7 13 8 2 3 5 4 5 10 8 2 2 8 6 7 5 6 5 4 4 7 7 7 5 5 6 5 7 10 6 5 2 5 6 6 5 4 5 3 1 2 4 3 2 3 9 5 1 2 6 7 12 16 15 10 9 9 8 9 9 10
28 26 26 24 23 26 20 8 10 21 16 7 16 23 18 13 7 4 4 3 2 1 2 2 2 2 3 5 8 4 2 1 2 2 2 5 5 3 3 7 6 7 6 5 7 2 2 6 8 8 6 6 5 2 7 12 6 4 5 7 6 5 5 5 4 3 2 2 5 5 4 3 8 4 2 2 3 8 11 13 12 8 6 7 8 9 9 8
32 30 29 27 26 28 26 18 16 19 16 11 19 23 17 10 4 3 2 4 1 0 0 2 2 3 7 9 4 0 3 1 1 2 3 1 1 4 1 3 6 5 2 4 6 3 1 1 2 4 4 5 4 3 2 7 6 6 7 6 7 6 5 4 2 4 2 5 6 9 10 6 6 3 3 3 4 7 8 8 9 6 5 6 7 7 8 8
36 34 32 32 33 32 25 20 24 21 14 14 22 21 12 4 2 5 6 2 1 1 2 1 1 5 12 14 7 2 3 1 1 6 4 1 2 3 0 1 4 3 1 5 5 3 3 1 1 2 3 4 6 5 3 2 4 5 5 5 4 4 4 4 4 4 1 6 4 6 8 8 8 6 3 5 6 6 7 7 9 7 6 7 6 6 8 8
39 38 38 37 35 35 27 21 27 24 14 17 22 13 6 3 1 6 5 1 0 4 5 4 3 7 11 10 8 7 5 2 3 7 7 5 5 6 6 6 6 3 2 7 4 2 2 4 3 2 1 4 6 4 4 4 2 3 5 6 4 2 3 2 3 0 3 6 3 1 1 5 10 8 5 9 11 9 9 8 9 8 8 7 6 7 7 7
41 39 40 40 37 39 33 23 24 25 20 22 17 4 2 6 7 10 8 4 2 2 4 4 3 8 11 8 5 6 4 2 5 5 4 6 6 8 8 6 6 4 2 5 3 1 3 5 2 1 2 3 8 7 3 1 4 5 6 6 5 2 1 3 3 2 4 5 3 1 1 3 6 5 9 15 14 10 7 8 8 8 8 8 6 7 6 7
37 38 39 42 40 39 35 24 22 28 27 22 12 4 5 6 7 11 13 9 2 1 2 4 6 8 9 6 4 7 5 3 7 6 3 6 6 7 7 7 7 3 3 4 3 5 5 6 5 8 3 6 11 9 6 6 6 6 5 5 6 6 5 4 4 4 4 4 3 2 2 4 2 3 8 10 8 7 6 6 6 7 7 5 4 6 7 8
28 38 39 39 38 37 37 29 24 31 28 15 8 8 10 8 6 9 12 8 3 2 3 4 8 8 6 3 2 7 5 2 6 6 4 7 7 8 7 9 12 6 4 4 2 3 4 7 6 4 1 9 11 5 5 7 3 3 2 4 4 6 6 2 3 5 3 2 3 2 4 5 4 6 8 6 7 7 6 6 5 7 5 2 4 6 7 8
21 34 38 35 37 40 41 33 30 34 24 10 8 9 10 10 8 7 7 6 5 5 6 4 4 5 6 3 2 6 3 2 5 5 3 5 5 7 8 7 12 12 9 7 3 2 3 5 5 2 2 5 6 3 4 3 3 2 3 4 4 4 6 2 2 1 3 3 4 3 5 5 3 8 8 6 8 9 7 8 8 7 3 4 6 7 8 8
19 23 27 29 35 41 42 38 36 35 19 8 11 10 8 11 8 6 5 5 7 9 9 4 3 5 7 5 4 7 4 2 5 5 4 3 3 7 8 5 7 15 15 7 2 3 5 4 4 1 1 3 1 3 3 3 3 5 4 6 2 2 2 2 2 3 3 3 5 2 6 6 2 6 4 2 6 10 11 12 9 6 5 7 7 7 8 8
15 11 14 26 38 40 41 42 39 27 11 7 12 9 7 9 6 5 4 4 8 10 8 7 6 7 8 7 6 8 7 4 6 6 4 4 5 7 11 6 5 15 16 7 2 3 4 3 5 1 3 3 4 3 2 5 2 5 4 5 4 2 1 2 2 2 1 4 5 2 4 5 6 6 1 4 8 10 12 11 9 10 10 9 7 7 7 7
12 6 6 21 36 39 42 46 35 16 5 7 11 9 7 9 5 3 5 5 7 10 9 9 7 5 6 8 6 7 9 8 8 7 5 5 6 6 12 10 5 11 13 10 6 3 3 3 4 1 1 1 3 2 4 1 2 3 2 3 2 2 4 3 3 3 3 2 4 3 3 5 6 6 6 10 11 10 10 9 8 13 12 8 7 7 8 8
8 4 3 10 27 41 46 41 23 8 6 8 9 7 5 7 5 4 5 5 4 5 8 10 8 6 6 7 6 6 9 8 9 8 6 7 6 5 9 10 6 6 11 12 9 3 2 4 4 2 2 1 2 4 8 9 6 3 4 5 3 1 2 1 1 2 4 3 2 3 6 7 4 4 8 11 10 10 10 8 9 10 7 6 8 8 8 9
5 5 3 5 23 42 39 22 9 7 7 7 9 9 6 5 5 7 7 4 2 1 3 5 7 7 6 7 6 5 7 6 7 7 5 7 8 6 6 10 9 8 8 8 9 5 3 3 4 2 1 3 5 4 5 8 7 6 6 8 8 6 4 2 3 2 2 2 4 3 7 10 4 3 6 7 7 7 6 5 8 8 5 5 7 7 8 8
5 7 5 10 28 38 24 8 7 8 7 8 8 7 5 3 4 8 8 5 4 2 1 1 5 7 7 7 7 7 7 6 8 8 6 9 11 8 6 9 12 13 10 7 9 7 4 3 3 3 3 5 6 4 2 4 3 3 3 4 6 6 6 6 5 4 2 2 2 3 5 9 3 2 4 4 5 6 4 3 6 8 6 5 6 6 7 6
5 6 3 15 36 34 13 7 10 7 7 8 5 3 3 2 2 6 8 9 7 4 3 2 3 6 6 5 6 8 8 7 9 11 8 8 10 7 6 9 10 12 9 4 4 4 3 3 4 2 2 2 4 5 2 1 4 2 1 2 5 8 7 5 5 4 4 5 4 3 5 8 2 0 3 4 4 5 5 5 6 8 6 4 6 7 7 7
4 4 0 15 38 32 9 7 11 8 9 9 7 8 6 3 3 7 10 12 9 5 6 4 2 5 5 3 5 9 11 7 7 12 10 6 7 4 6 11 11 10 8 4 4 7 5 4 5 2 1 3 4 3 2 1 3 3 3 4 8 11 7 3 1 3 2 8 9 5 10 8 2 3 3 5 5 5 7 6 5 7 6 5 6 6 7 8
3 4 0 9 25 21 7 7 8 8 11 12 11 13 10 5 4 7 9 11 9 6 7 6 5 5 4 3 5 7 12 11 7 8 9 6 3 1 3 10 12 11 8 4 4 7 6 6 8 8 8 8 7 6 5 4 4 2 4 7 9 11 11 7 3 4 7 7 10 10 12 5 2 5 5 6 5 5 7 6 4 6 6 5 5 6 7 7
3 3 2 3 7 8 7 7 5 5 9 9 7 9 12 10 5 3 6 9 9 8 6 2 5 7 4 5 8 8 11 14 8 4 6 7 4 1 2 7 9 9 7 5 5 6 3 3 10 13 14 14 10 5 6 10 8 7 8 11 12 12 13 10 6 7 7 3 6 14 15 9 7 5 5 6 5 5 7 6 6 7 6 4 5 5 6 7
2 3 3 3 3 5 8 7 5 5 7 8 4 4 11 14 7 2 4 6 7 8 5 1 3 8 9 10 11 9 9 11 7 5 7 7 3 1 1 2 4 4 4 4 4 5 3 4 12 15 17 16 8 4 9 15 14 15 13 14 15 15 14 13 13 11 6 4 11 13 9 12 17 11 9 10 6 6 9 8 8 8 5 4 5 5 6 7
3 2 2 1 1 5 9 10 9 7 9 11 7 4 8 13 10 6 6 6 4 4 4 2 6 12 15 16 13 8 8 9 9 10 10 6 3 1 1 1 2 1 2 2 2 3 4 7 10 11 15 15 4 5 9 12 11 12 15 16 18 17 18 19 20 15 9 8 18 9 9 14 21 12 10 11 9 12 12 9 6 5 4 5 6 6 8 8
2 2 3 2 1 3 6 11 13 11 11 10 7 7 8 10 12 10 6 5 4 6 7 8 13 15 15 14 12 10 10 10 10 12 10 6 5 5 3 2 2 1 2 3 3 2 3 5 5 6 11 15 5 6 9 9 7 8 12 16 19 21 23 22 20 19 14 16 21 12 8 19 17 8 9 10 9 10 7 3 4 5 5 5 6 7 8 9
2 1 2 1 1 3 4 4 7 9 11 9 6 6 7 9 13 12 7 7 8 9 11 15 19 17 15 13 11 11 14 15 16 14 11 10 7 6 6 5 3 3 3 4 4 3 3 4 3 5 6 12 5 6 7 8 8 7 9 15 18 19 19 19 18 17 14 17 20 15 16 20 9 6 10 9 4 4 4 5 7 7 6 6 7 9 9 9
7 2 0 1 2 3 3 2 4 6 8 8 7 7 7 11 15 12 9 10 12 11 12 19 23 16 12 12 13 16 19 18 16 10 10 12 9 5 4 5 5 6 6 5 4 3 5 3 2 5 6 10 6 8 7 6 5 5 12 18 17 13 12 14 14 14 14 16 17 13 16 18 6 5 7 7 5 7 9 9 8 7 7 8 9 11 11 10
10 3 1 1 3 4 4 3 5 7 6 7 10 10 10 13 13 10 7 7 11 13 12 17 20 12 8 13 19 22 20 13 7 3 5 6 4 5 4 4 5 7 7 5 3 3 5 4 3 6 7 7 6 10 9 6 3 6 15 16 15 12 12 13 13 15 17 16 13 12 17 19 9 5 6 7 8 10 10 9 9 8 8 9 11 11 10 10
Wind_Direction
192 184 170 169 185 198 193 191 194 195 199 209 216 225 233 236 240 238 240 242 241 250 253 255 269 285 295 306 310 316 321 318 310 257 227 222 212 198 175 141 90 21 18 14 10 21 33 21 3 5 33 70 11 342 11 16 60 55 80 93 121 173 186 175 180 194 175 195 210 221 164 129 167 248 148 54 42 64 46 24 348 356 19 55 112 128 145 153
189 178 178 183 190 194 194 201 202 199 204 212 217 224 235 238 245 245 240 244 247 253 257 264 277 289 299 309 312 321 324 320 311 258 237 209 192 179 159 127 77 39 32 31 26 35 44 350 340 10 37 49 351 346 23 8 63 82 109 96 185 199 194 188 181 190 183 180 185 192 148 144 176 169 135 172 343 48 85 356 351 8 1 55 98 118 143 152
188 186 188 188 196 192 193 209 210 208 209 213 219 223 228 233 240 245 245 245 249 255 262 272 282 294 303 308 316 328 329 328 316 266 223 196 187 171 147 115 71 47 33 27 21 26 40 320 336 31 43 50 356 355 35 14 42 129 110 89 225 213 213 218 189 198 218 172 147 164 160 152 204 165 141 182 172 196 198 208 188 238 227 203 177 124 141 152
194 196 194 191 197 190 195 207 207 208 211 209 215 219 215 220 226 240 253 248 252 260 265 277 287 297 303 309 322 326 338 5 275 228 173 180 178 161 138 105 64 43 23 17 18 21 32 33 47 55 56 42 341 13 45 355 26 100 102 151 211 173 155 216 199 209 210 158 141 141 124 142 223 169 141 148 141 266 247 212 191 201 198 187 199 146 142 150
202 201 197 196 192 192 196 199 203 197 198 204 212 216 208 213 219 231 246 247 254 257 269 285 290 300 307 314 325 326 2 55 242 171 148 165 164 155 134 87 52 39 18 11 14 31 38 46 58 50 50 43 348 24 20 314 64 65 33 197 193 139 131 218 206 202 162 121 106 119 143 162 177 101 149 151 167 232 237 226 210 193 179 173 174 156 144 145
210 203 198 196 194 207 189 189 216 181 166 175 197 205 197 208 213 217 228 236 246 254 273 283 294 304 311 322 327 337 66 107 268 162 157 163 157 155 131 64 35 26 6 7 11 35 41 33 52 51 44 50 3 44 326 313 48 91 321 302 213 182 185 204 195 200 149 111 126 162 186 132 104 282 193 170 202 227 257 252 212 176 162 158 153 152 147 148
215 208 205 201 198 209 209 234 219 158 119 123 177 200 188 202 204 212 220 226 239 248 268 279 298 304 324 337 337 26 89 248 269 170 171 166 160 162 137 23 19 13 355 17 21 52 66 41 64 109 76 72 185 100 350 323 36 89 151 301 225 196 206 191 155 186 145 139 186 173 124 143 167 203 166 208 236 254 329 6 138 136 142 145 143 150 155 155
223 217 217 214 217 228 235 247 207 137 82 334 294 240 213 214 202 215 219 227 241 245 258 273 295 314 348 355 71 29 354 260 219 174 180 172 169 172 168 342 8 14 33 44 35 113 94 51 101 145 83 92 167 112 353 344 27 72 155 241 225 215 248 221 90 171 162 158 170 116 137 209 193 170 175 237 241 240 57 83 110 121 127 140 148 154 155 152
227 229 229 225 229 243 247 248 199 173 178 350 324 299 278 256 217 229 230 237 245 250 258 260 289 326 1 80 92 48 273 259 186 179 181 179 178 182 202 343 12 25 67 53 47 105 106 104 185 178 149 171 128 92 357 27 340 166 153 200 225 317 317 7 153 230 207 200 120 126 219 267 253 205 266 241 208 158 107 97 112 125 132 152 157 163 160 156
230 233 237 247 249 249 249 242 238 252 259 318 328 319 309 307 238 226 227 239 242 247 264 248 283 15 95 100 91 133 267 294 197 183 181 185 184 190 208 319 7 37 70 58 55 71 93 168 181 151 140 126 89 72 8 86 175 159 139 182 173 333 316 119 209 256 253 249 185 175 228 276 326 277 252 249 184 151 118 118 140 140 155 170 163 174 169 167
232 229 233 256 265 261 258 249 249 276 283 296 323 327 321 323 283 238 222 227 230 229 228 227 280 60 82 88 113 198 270 308 201 183 180 186 185 194 205 272 318 42 57 65 68 68 86 159 151 124 120 106 94 29 1 139 121 86 107 239 312 342 306 192 223 260 227 234 187 168 223 281 358 229 233 240 177 156 141 153 173 162 175 177 170 179 176 180
232 232 233 245 258 260 260 260 257 274 294 301 311 320 316 302 281 251 222 217 223 217 202 188 161 163 66 63 157 218 257 299 200 186 182 184 182 192 198 283 319 35 11 73 83 76 75 134 119 98 107 142 120 17 81 125 85 39 51 318 306 354 336 248 239 236 172 201 182 149 272 284 225 222 247 240 160 148 148 169 189 186 193 186 180 177 182 190
234 232 234 239 248 252 250 259 267 282 298 300 299 301 299 292 283 254 222 215 217 203 189 173 171 140 96 336 235 227 239 245 202 191 185 184 184 191 193 201 127 61 59 97 95 77 64 62 106 106 120 110 123 227 103 51 50 310 45 50 312 357 334 276 342 168 162 183 181 150 269 271 244 244 262 197 154 142 158 192 202 202 203 196 191 181 196 198
241 238 238 240 244 247 246 247 259 285 295 288 287 289 296 293 276 245 212 209 206 187 175 159 162 128 105 252 254 245 242 233 204 196 188 187 185 182 190 169 140 108 86 93 86 65 58 76 95 98 99 91 128 101 39 11 22 14 16 43 2 350 281 287 337 144 157 191 142 130 228 266 266 269 260 188 167 160 182 208 206 209 210 203 203 195 208 207
247 253 258 253 249 250 247 243 247 267 283 280 280 287 302 292 259 225 191 193 180 165 157 147 155 122 84 275 272 271 244 226 205 196 190 190 183 174 183 165 144 131 99 79 83 70 64 88 85 77 60 24 58 69 27 353 12 33 314 306 342 187 268 303 277 165 158 230 62 126 211 273 273 278 263 181 177 180 195 213 211 215 213 206 211 204 211 217
248 257 266 265 263 265 260 255 243 237 263 276 278 286 302 295 198 169 170 161 139 139 124 121 139 115 99 270 289 287 238 216 200 191 187 184 180 172 160 148 125 119 105 76 93 85 56 60 61 63 129 57 68 84 47 10 345 359 104 251 268 184 278 318 300 222 182 129 61 185 218 277 279 299 311 170 182 196 209 226 220 219 217 211 214 210 211 214
248 251 259 264 270 274 272 269 251 232 245 257 267 286 324 108 126 136 142 126 114 111 101 116 134 108 167 264 276 269 221 192 189 183 181 175 171 168 152 133 97 102 93 72 87 74 32 39 44 323 52 61 93 97 59 331 288 312 8 244 244 197 220 300 305 284 152 131 207 219 228 253 263 295 324 187 190 196 218 231 224 222 222 219 216 214 215 208
245 248 252 257 265 270 268 268 260 235 204 250 261 113 100 99 107 123 134 123 101 82 72 90 111 95 263 245 209 220 169 166 174 172 172 167 163 162 147 121 104 99 71 43 47 43 16 23 58 47 24 25 87 106 143 227 211 198 198 214 253 238 215 252 285 254 143 143 218 198 233 255 265 275 232 206 196 197 222 233 231 228 223 224 220 215 216 210
242 244 247 253 260 264 261 261 254 211 193 278 164 115 97 82 87 113 134 130 113 103 139 203 159 149 226 232 176 114 119 143 156 165 165 160 157 147 123 100 95 93 85 73 337 13 78 51 65 96 223 221 189 171 194 207 170 164 176 163 195 234 250 235 254 257 184 163 225 211 225 245 257 267 251 216 195 208 233 246 245 233 223 225 222 219 215 213
240 240 244 250 254 256 255 257 241 196 203 259 157 124 107 90 69 67 179 194 206 167 155 209 197 164 215 274 124 114 118 124 136 165 163 161 153 133 94 63 64 65 111 161 201 346 101 116 166 202 216 208 200 199 195 166 139 131 135 153 199 213 264 255 253 289 232 164 240 224 224 244 248 259 261 213 179 221 238 242 243 231 224 223 219 220 215 213
237 237 241 244 246 246 246 251 227 186 190 221 182 149 161 161 129 220 225 258 260 243 239 249 229 232 307 205 158 139 122 90 33 160 163 164 152 141 126 59 95 96 239 169 149 43 87 140 218 226 217 201 194 196 174 135 138 116 137 189 249 214 249 262 250 297 311 173 261 249 233 251 248 254 265 206 171 225 227 226 236 230 226 224 219 221 213 202
233 234 235 236 237 235 239 242 209 182 193 217 208 211 245 196 122 113 148 226 267 245 233 251 313 286 268 204 182 161 89 92 68 200 171 160 154 167 175 99 141 185 218 136 112 60 90 209 236 231 176 123 138 172 167 164 172 158 130 179 259 244 267 280 278 311 81 181 264 280 260 260 256 254 259 237 214 232 227 220 229 226 225 224 217 218 206 187
231 230 228 230 228 225 236 226 194 189 208 216 214 211 244 191 103 69 119 107 290 251 220 218 230 242 235 239 198 181 117 153 177 217 184 158 156 183 147 134 162 151 147 172 155 152 182 243 243 210 128 132 144 132 138 136 192 191 172 183 240 242 248 274 290 326 319 217 271 296 288 272 267 264 256 243 229 238 241 231 235 230 225 226 218 212 202 192
227 225 224 224 219 217 228 206 190 205 218 224 227 214 176 132 126 76 105 60 298 269 226 209 207 202 196 204 187 180 196 186 166 195 186 163 138 157 156 156 146 131 183 196 179 185 214 242 231 146 154 174 161 118 135 152 238 235 206 200 219 223 216 229 284 329 337 336 3 345 305 273 249 250 251 254 244 247 249 241 247 242 231 232 223 211 205 196
221 219 218 217 213 211 207 194 202 213 211 226 231 213 178 155 142 82 80 13 280 285 288 207 200 205 198 177 170 173 162 235 211 186 181 170 149 142 169 157 129 171 201 195 191 233 245 235 118 125 167 172 158 161 169 172 208 265 227 205 214 217 224 239 310 360 352 324 344 23 308 277 250 243 252 280 316 258 248 239 247 246 233 224 223 215 201 193
214 213 210 209 208 195 182 194 213 206 202 230 224 196 174 167 148 112 98 41 281 265 193 179 178 191 190 166 154 142 84 256 235 166 169 175 166 131 146 159 86 192 190 168 196 251 246 216 126 129 155 161 172 205 211 180 172 262 243 206 210 208 219 237 198 92 255 259 295 62 230 276 278 242 241 245 246 257 261 251 249 248 234 220 221 214 194 186
210 207 206 208 201 184 175 195 202 184 192 241 209 180 175 171 161 167 92 30 279 204 143 197 196 169 175 164 152 135 187 232 130 147 167 176 182 97 134 178 122 192 173 123 239 253 181 182 133 121 126 149 177 217 216 173 154 238 254 187 190 194 207 213 175 191 238 260 314 27 112 276 281 256 235 214 219 264 273 260 255 247 233 228 223 210 194 190
210 205 204 207 201 190 184 173 182 184 192 213 175 172 174 173 174 141 99 247 270 135 131 233 151 143 143 158 157 144 233 199 123 181 174 163 185 71 154 199 172 182 173 144 220 269 146 176 182 158 141 170 195 212 182 154 161 246 225 138 152 166 178 153 137 186 317 1 300 298 119 266 275 266 290 196 202 250 259 254 257 250 231 225 220 212 199 193
211 204 203 204 200 199 199 190 189 199 203 170 162 170 167 168 172 79 88 207 244 95 120 121 121 129 91 143 168 142 28 35 129 220 82 143 186 61 171 200 154 169 195 193 217 264 126 194 190 162 166 198 203 222 170 160 186 216 127 95 78 76 80 82 106 125 48 320 246 222 168 244 273 240 117 89 182 227 244 252 259 260 245 228 216 211 199 187
213 205 203 199 196 200 204 219 224 206 202 186 169 165 153 152 144 102 182 222 199 147 79 126 164 164 140 148 180 110 102 43 16 107 59 110 116 36 152 153 97 137 219 279 247 248 325 255 181 159 177 185 140 73 163 166 162 140 107 68 50 38 38 50 49 80 40 279 230 199 186 195 272 267 161 182 201 214 229 253 270 283 279 245 221 207 193 184
216 208 204 198 197 195 194 221 222 199 194 189 166 155 143 108 69 171 202 240 28 164 133 166 176 143 156 161 172 184 141 79 133 147 145 149 98 59 24 103 79 88 346 283 271 303 335 318 238 222 167 125 99 72 21 70 121 114 92 84 73 354 7 25 358 45 203 260 234 207 190 186 238 257 224 246 259 235 218 237 262 273 273 250 225 206 190 183
218 211 205 201 200 195 193 213 207 186 179 173 157 147 144 124 217 217 213 79 156 202 163 172 189 162 166 168 176 176 152 139 179 166 161 157 165 183 197 191 161 122 244 238 248 339 277 234 257 312 191 140 115 91 29 22 85 105 101 113 113 333 351 348 310 15 224 259 286 310 154 204 243 250 248 261 264 248 225 227 243 251 257 249 222 203 187 176
221 213 207 204 200 197 199 207 195 177 169 162 151 120 146 168 199 209 207 187 198 216 142 122 139 155 158 164 186 172 138 170 179 172 170 154 176 209 221 221 187 159 196 195 181 199 268 293 294 154 256 188 155 159 163 179 187 167 148 146 148 148 171 259 268 270 261 272 305 337 163 243 277 267 236 241 250 252 236 230 236 238 248 250 222 193 181 178
228 215 208 206 204 201 200 202 190 176 167 159 149 151 185 200 206 199 209 214 198 26 79 109 116 140 162 175 191 166 155 220 178 157 171 158 175 215 225 236 219 171 95 143 172 181 214 285 211 177 210 187 180 189 168 138 165 185 160 146 162 164 170 211 219 225 255 284 305 291 194 205 226 258 243 242 267 282 258 245 246 249 254 250 207 176 177 185
238 219 210 206 205 205 201 199 189 174 168 161 158 177 189 201 208 206 213 206 167 51 49 99 112 135 189 248 260 180 166 218 179 152 172 177 191 207 198 210 205 172 131 177 215 159 195 266 241 210 194 168 181 197 118 107 146 218 122 121 187 186 165 185 203 180 181 296 294 227 222 221 212 263 267 261 284 282 273 280 270 265 267 213 182 184 186 190
252 224 211 203 204 206 200 195 185 175 171 165 176 191 198 199 198 202 202 178 167 135 108 93 89 138 198 226 247 212 178 105 155 158 201 203 220 214 202 213 197 183 181 182 193 145 168 274 279 349 19 169 184 179 126 140 181 162 141 177 206 171 138 136 265 66 88 264 267 199 242 285 308 278 266 242 263 274 283 280 260 260 264 201 203 200 194 194
263 233 211 203 205 204 198 191 183 177 175 180 195 201 207 209 202 185 182 160 149 138 134 167 177 166 189 194 205 205 186 111 155 178 195 189 245 217 205 234 192 191 199 181 189 201 169 259 298 81 177 260 261 124 75 19 124 128 181 198 159 69 90 111 240 345 46 251 270 216 242 275 274 273 308 113 241 264 267 263 262 268 241 217 221 206 197 197
260 245 216 212 208 200 194 189 182 179 182 193 204 214 216 215 204 173 176 134 135 152 169 199 194 175 183 190 199 185 174 173 176 190 188 182 243 209 185 208 202 199 203 177 198 245 163 231 306 60 187 300 358 115 78 358 62 130 181 178 123 140 216 118 175 232 174 245 283 274 248 256 215 225 279 167 209 238 252 258 269 263 240 221 221 208 200 194
246 269 245 216 207 199 192 187 182 182 202 193 203 216 215 215 207 171 176 152 151 170 189 205 196 182 188 183 172 166 181 187 170 179 191 186 233 211 178 191 207 199 196 177 192 223 144 207 269 330 216 318 9 163 184 225 31 60 112 142 106 141 179 164 164 175 164 216 281 293 270 253 216 199 194 202 208 215 237 253 256 253 244 220 207 202 198 196
219 262 277 207 204 199 190 185 181 190 202 198 208 209 202 211 211 216 210 183 168 178 197 208 191 175 192 185 168 168 188 193 174 183 204 191 215 238 191 184 178 177 182 185 196 181 130 213 236 313 334 176 196 210 190 181 172 161 159 167 178 106 105 160 183 127 131 168 226 275 281 266 231 190 192 200 208 210 220 239 249 259 258 214 203 203 199 198
174 235 244 175 196 191 183 180 189 195 197 209 220 217 212 204 188 205 222 222 250 206 176 201 196 184 180 179 189 185 178 188 184 189 217 205 207 234 206 178 163 150 152 180 206 198 175 196 183 181 232 201 223 250 208 193 185 182 189 189 184 164 135 161 236 208 135 181 189 190 274 270 237 189 201 198 216 228 225 237 262 281 276 219 209 207 204 200
175 232 210 166 184 181 174 189 200 186 200 208 213 218 213 201 181 192 200 208 245 263 101 186 205 196 183 181 192 178 164 181 190 192 219 217 209 219 213 185 165 154 150 174 207 197 147 122 158 195 219 216 240 274 220 193 143 122 203 200 172 171 166 172 214 217 161 220 184 128 274 276 253 186 229 227 238 259 259 237 263 283 273 227 208 200 203 204
206 234 178 168 179 176 174 214 197 195 218 204 202 221 208 216 191 179 186 195 205 205 199 213 203 203 202 180 172 173 176 188 193 198 213 221 220 219 189 173 158 154 160 172 199 176 114 132 186 224 304 302 309 328 355 100 108 118 227 165 167 197 191 176 197 180 169 208 171 121 259 266 287 308 263 266 270 276 264 229 240 273 274 217 199 196 191 193
223 230 120 177 180 177 182 213 195 206 218 207 212 213 212 232 190 181 189 195 195 186 197 213 206 208 211 158 152 180 190 195 204 208 208 212 226 216 161 168 164 164 182 189 173 173 172 184 185 181 298 324 333 320 291 240 164 187 215 185 193 199 175 140 129 115 212 213 165 177 244 244 277 322 311 304 308 300 270 235 220 256 264 220 199 197 190 185
243 217 202 190 186 184 205 215 196 205 207 207 213 206 207 222 206 202 199 194 196 189 196 209 187 178 191 172 172 188 194 201 212 210 209 215 235 275 182 185 180 184 201 200 167 175 180 186 183 184 207 221 224 224 217 187 157 193 208 188 198 195 177 181 185 175 232 213 160 199 241 244 330 314 301 298 305 297 279 266 245 250 253 228 203 196 192 186
267 230 173 184 196 202 224 215 194 204 205 205 212 203 205 211 207 203 198 198 204 196 190 188 154 165 181 183 192 202 206 212 211 181 201 213 212 275 220 192 195 203 195 162 155 165 160 206 200 199 211 217 218 210 143 129 151 203 201 185 194 199 190 192 205 209 213 172 188 225 235 249 269 262 265 275 268 267 279 288 283 269 258 233 207 198 197 192
256 253 196 174 198 214 226 225 198 184 189 192 196 187 201 211 211 174 186 207 208 195 193 67 144 182 189 188 202 212 205 210 210 185 202 206 193 343 23 157 214 228 180 160 176 154 130 220 215 211 223 226 213 165 149 150 174 197 192 190 199 198 191 196 212 214 159 141 241 233 205 240 254 238 235 256 255 256 260 257 262 267 255 220 190 186 198 198
232 271 259 238 227 205 211 218 210 192 181 182 190 190 197 210 211 190 194 211 212 186 184 212 215 208 200 193 200 206 191 198 210 211 211 195 148 121 41 77 239 242 116 156 217 145 149 216 217 210 231 237 194 120 170 171 177 193 191 195 198 195 197 203 214 215 169 197 246 229 155 227 249 238 229 237 232 241 248 241 239 241 223 191 175 189 203 202
230 274 283 315 292 228 220 216 212 211 199 182 184 196 196 207 213 211 203 196 212 204 188 209 225 220 212 202 195 197 194 195 209 214 205 182 164 162 156 209 232 82 99 156 197 181 167 211 204 183 231 245 210 134 178 176 168 198 202 202 201 199 201 204 213 218 206 223 246 246 234 251 253 228 222 226 222 236 243 211 203 213 208 187 184 208 214 207
201 254 265 329 283 261 280 239 202 210 211 196 193 198 192 206 213 217 210 188 200 205 196 214 225 220 215 211 203 210 208 202 212 212 187 178 192 187 183 194 174 130 153 178 191 206 190 195 149 133 224 248 211 147 174 177 176 201 217 218 213 205 204 207 214 217 213 232 246 253 264 265 249 192 226 231 201 212 218 215 226 226 209 189 198 219 219 210
218 261 151 8 303 231 246 245 186 203 213 205 208 202 199 214 213 212 217 206 206 206 197 214 225 222 215 214 215 224 222 215 218 211 176 182 193 182 186 192 159 159 180 185 172 171 184 196 111 130 214 240 194 154 169 169 163 220 241 233 216 199 202 209 213 210 203 221 238 244 254 256 231 158 221 222 187 209 224 225 233 233 210 196 207 220 218 211
218 266 174 197 278 228 221 234 203 209 206 194 201 199 199 214 210 201 216 220 217 218 211 216 224 221 208 213 220 227 229 223 212 171 156 180 163 112 128 151 154 161 164 165 167 164 170 175 154 168 211 238 191 158 155 135 137 244 247 227 196 187 205 210 215 217 207 208 220 224 238 249 241 168 199 219 214 226 231 222 221 225 215 207 215 221 218 211